Tracking 25949 objects as of 8-Aug-2022
HD Live streaming from Space Station
objects crossing your sky now

SL-8 R/B

Track SL-8 R/B now!
10-day predictions


NORAD ID: 11321
Int'l Code: 1979-028B
Perigee: 969.0 km
Apogee: 997.5 km
Inclination: 82.9 °
Period: 104.6 minutes
Semi major axis: 7354 km
RCS: 4.5437 m2 (large)
Launch date: April 7, 1979
Source: Commonwealth of Independent States (former USSR) (CIS)
Launch site: PLESETSK MISSILE AND SPACE COMPLEX (PKMTR)

Note: This is a ROCKET BODY
aabbcc
Your satellite tracking list
Your tracking list is empty




NASA's NSSDC Master Catalog

Two Line Element Set (TLE):
1 11321U 79028B   22220.11198542  .00000013  00000-0 -19086-5 0  9997
2 11321  82.9198  63.9792 0019431  21.6315 127.6770 13.76559818176387
Source of the keplerian elements: AFSPC